Voltar ao catálogo

STARLINK-31278

AtivoComunicaçõesVLEO
NORAD 59163·PAYLOAD·🇺🇸 United States

Lançado Mar 4, 2024 de Cape Canaveral Space Force Station

Loading…

Próximas Passagens (próximas 24 horas)

TLE

AtualizadoSource: CelesTrak SupGP

Época: Sep 15, 2026, 02:09 UTC

1 59163C 24044M   26258.09006944  .00054237  00000+0  19647-2 0  2580
2 59163  43.0005 117.1944 0001493 277.5484 104.3392 15.27546452    13

Acompanhe STARLINK-31278 em tempo real com AllMySat

Download on the App Store